Location: Quebec
(46.8000°N, 71.2500°W)
Time: 03:22:35
(UTC-04:00)

Envisat - Pass Details

Date: 11 October 2017
Orbit: 764 x 766 km, 98.2° (Epoch: 18 October)

Event Time Altitude Azimuth Distance (km) Brightness Sun altitude
Exits shadow 18:50:30 11° 91° (E) 2,261 4.7 -8.6°
Maximum altitude 18:53:15 16° 57° (ENE) 1,940 4.6 -9.1°
Drops below altitude 10° 18:56:11 10° 22° (NNE) 2,312 5.3 -9.6°
Sets 18:59:21 0° 1° (N) 3,243 6.2 -10.1°
